Date String (YYYY-MM-DD hh:mm:ss) UTC,Instrument flags,Ambient pressure (hPa),Sample flow (lpm),Bypass flow (lpm),Sample temperature (°C),Ambient temperature (°C),ASC tube jacket temperature (°C),LED temperature (°C),Box temperature (°C),Sample RH (%),Span deviation,Mass concentration (μg/m³),Mass concentration (μg/m³),Mass concentration (μg/m³)
DateTimeUTC,F1_M11,P_M11,Q1_M11,Q2_M11,T1_M11,T2_M11,T3_M11,T4_M11,T5_M11,U1_M11,ZSPAN_M11,X0_M11,X2_M11,X1_M11
2022-01-24 19:00:00,,0822.4,5.00,0.00,22.0,21.5,00.0,31.1,23.8,09.2,0000.0,0007.10,0002.46,0001.87
2022-01-24 19:01:00,,0822.3,5.00,0.00,22.0,21.6,00.0,31.1,23.8,09.3,0000.0,0007.17,0002.46,0001.88
2022-01-24 19:02:00,,0822.3,4.99,0.00,22.1,21.6,00.0,31.1,23.9,09.4,0000.0,0007.79,0002.49,0001.89
2022-01-24 19:03:00,,0822.3,5.01,0.00,22.1,21.6,00.0,31.1,23.8,09.6,0000.0,0008.10,0002.47,0001.89
2022-01-24 19:04:00,,0822.4,5.01,0.00,22.1,21.6,00.0,31.1,23.9,09.3,0000.0,0008.09,0002.49,0001.90
2022-01-24 19:05:00,,0822.3,5.00,0.00,22.1,21.5,00.0,31.1,23.8,09.2,0000.0,0008.24,0002.52,0001.92
2022-01-24 19:06:00,,0822.3,5.00,0.00,22.1,21.5,00.0,31.1,23.8,09.5,0000.0,0008.15,0002.55,0001.94
2022-01-24 19:07:00,,0822.3,5.00,0.00,22.0,21.4,00.0,31.1,23.8,09.5,0000.0,0008.30,0002.58,0001.95
2022-01-24 19:08:00,,0822.3,4.99,0.00,22.0,21.4,00.0,31.1,23.7,09.3,0000.0,0008.34,0002.62,0001.96
2022-01-24 19:09:00,,0822.3,5.00,0.00,22.0,21.5,00.0,31.1,23.7,09.7,0000.0,0007.19,0002.62,0001.97
2022-01-24 19:10:00,,0822.3,5.02,0.00,22.0,21.5,00.0,31.1,23.8,09.6,0000.0,0006.86,0002.60,0001.97
2022-01-24 19:11:00,,0822.2,5.00,0.00,22.0,21.4,00.0,31.1,23.7,09.6,0000.0,0006.94,0002.62,0001.96
2022-01-24 19:12:00,,0822.1,4.99,0.00,22.0,21.4,00.0,31.0,23.7,09.5,0000.0,0006.76,0002.63,0001.94
2022-01-24 19:13:00,,0822.2,5.00,0.00,22.0,21.4,00.0,31.0,23.7,09.7,0000.0,0006.40,0002.62,0001.93
2022-01-24 19:14:00,,0822.1,5.00,0.00,22.0,21.3,00.0,31.0,23.6,09.4,0000.0,0005.94,0002.61,0001.94
2022-01-24 19:15:00,,0822.1,5.00,0.00,21.9,21.2,00.0,31.0,23.6,09.1,0000.0,0006.23,0002.61,0001.93
2022-01-24 19:16:00,,0822.1,5.00,0.00,21.9,21.2,00.0,31.0,23.5,09.0,0000.0,0006.69,0002.61,0001.90
2022-01-24 19:17:00,,0822.1,5.00,0.00,21.9,21.2,00.0,31.0,23.5,09.4,0000.0,0006.86,0002.62,0001.86
2022-01-24 19:18:00,,0822.1,5.00,0.00,21.8,21.2,00.0,31.0,23.5,09.2,0000.0,0006.75,0002.59,0001.83
2022-01-24 19:19:00,,0822.1,5.00,0.00,21.8,21.2,00.0,31.0,23.5,09.4,0000.0,0006.80,0002.55,0001.80
2022-01-24 19:20:00,,0822.1,5.00,0.00,21.8,21.2,00.0,30.9,23.5,09.5,0000.0,0007.06,0002.58,0001.78
2022-01-24 19:21:00,,0822.1,5.01,0.00,21.8,21.2,00.0,30.9,23.5,09.7,0000.0,0007.18,0002.56,0001.75
2022-01-24 19:22:00,,0822.0,5.00,0.00,21.8,21.2,00.0,30.9,23.5,09.7,0000.0,0007.10,0002.50,0001.74
2022-01-24 19:23:00,,0822.0,5.00,0.00,21.8,21.2,00.0,30.9,23.5,10.1,0000.0,0007.21,0002.50,0001.76
2022-01-24 19:24:00,,0822.0,5.00,0.00,21.8,21.2,00.0,30.9,23.5,09.8,0000.0,0007.02,0002.50,0001.77
2022-01-24 19:25:00,,0821.9,5.00,0.00,21.8,21.3,00.0,30.9,23.5,09.4,0000.0,0006.67,0002.49,0001.77
2022-01-24 19:26:00,,0821.9,5.00,0.00,21.8,21.4,00.0,30.9,23.5,09.3,0000.0,0006.40,0002.48,0001.77
2022-01-24 19:27:00,,0821.9,4.99,0.00,21.8,21.4,00.0,30.9,23.6,09.6,0000.0,0006.01,0002.45,0001.78
2022-01-24 19:28:00,,0822.0,5.00,0.00,21.9,21.5,00.0,30.9,23.6,09.8,0000.0,0005.49,0002.41,0001.77
2022-01-24 19:29:00,,0821.9,5.00,0.00,21.9,21.5,00.0,30.9,23.6,09.8,0000.0,0005.56,0002.38,0001.78
2022-01-24 19:30:00,,0821.9,5.00,0.00,21.9,21.5,00.0,30.9,23.6,10.0,0000.0,0006.55,0002.41,0001.77
2022-01-24 19:31:00,,0822.0,5.00,0.00,21.9,21.5,00.0,30.9,23.7,10.1,0000.0,0007.01,0002.38,0001.76
2022-01-24 19:32:00,,0821.8,5.01,0.00,21.9,21.5,00.0,30.9,23.7,10.3,0000.0,0007.82,0002.35,0001.75
2022-01-24 19:33:00,,0821.8,5.01,0.00,21.9,21.5,00.0,30.9,23.7,09.7,0000.0,0008.11,0002.38,0001.73
2022-01-24 19:34:00,,0821.9,4.98,0.00,21.9,21.6,00.0,30.9,23.7,09.6,0000.0,0008.38,0002.35,0001.70
2022-01-24 19:35:00,,0821.8,5.00,0.00,22.0,21.6,00.0,30.9,23.7,09.6,0000.0,0008.35,0002.28,0001.66
2022-01-24 19:36:00,,0821.9,5.00,0.00,22.0,21.6,00.0,30.9,23.7,09.9,0000.0,0008.89,0002.30,0001.64
2022-01-24 19:37:00,,0821.8,5.01,0.00,22.0,21.6,00.0,31.0,23.7,09.9,0000.0,0008.93,0002.33,0001.62
2022-01-24 19:38:00,,0821.8,5.00,0.00,22.0,21.5,00.0,31.0,23.8,09.9,0000.0,0008.91,0002.34,0001.61
2022-01-24 19:39:00,,0821.7,5.00,0.00,22.0,21.4,00.0,31.0,23.8,10.3,0000.0,0009.16,0002.40,0001.63
2022-01-24 19:40:00,,0821.6,4.99,0.00,22.0,21.3,00.0,31.0,23.7,10.3,0000.0,0009.25,0002.49,0001.67
2022-01-24 19:41:00,,0821.7,5.00,0.00,21.9,21.3,00.0,31.0,23.7,10.3,0000.0,0008.69,0002.52,0001.72
2022-01-24 19:42:00,,0821.7,5.00,0.00,21.9,21.3,00.0,31.0,23.7,10.4,0000.0,0008.27,0002.58,0001.78
2022-01-24 19:43:00,,0821.7,5.00,0.00,21.9,21.2,00.0,31.0,23.6,10.5,0000.0,0007.75,0002.68,0001.84
2022-01-24 19:44:00,,0821.7,5.00,0.00,21.9,21.3,00.0,31.0,23.6,10.5,0000.0,0007.75,0002.70,0001.88
2022-01-24 19:45:00,,0821.7,5.00,0.00,21.9,21.3,00.0,30.9,23.6,10.1,0000.0,0007.43,0002.72,0001.94
2022-01-24 19:46:00,,0821.7,5.00,0.00,21.9,21.4,00.0,30.9,23.6,10.3,0000.0,0007.45,0002.82,0002.01
2022-01-24 19:47:00,,0821.7,5.00,0.00,21.9,21.3,00.0,30.9,23.6,10.3,0000.0,0006.75,0002.86,0002.08
2022-01-24 19:48:00,,0821.7,5.00,0.00,21.9,21.3,00.0,31.0,23.7,10.4,0000.0,0006.95,0002.93,0002.15
2022-01-24 19:49:00,,0821.7,5.00,0.00,21.9,21.3,00.0,30.9,23.6,10.3,0000.0,0006.99,0003.02,0002.21
2022-01-24 19:50:00,,0821.7,5.00,0.00,21.9,21.3,00.0,30.9,23.6,10.4,0000.0,0006.92,0003.06,0002.25
2022-01-24 19:51:00,,0821.7,5.00,0.00,21.9,21.3,00.0,30.9,23.6,10.2,0000.0,0006.73,0003.09,0002.29
2022-01-24 19:52:00,,0821.7,5.00,0.00,21.9,21.3,00.0,30.9,23.6,10.4,0000.0,0006.81,0003.14,0002.33
2022-01-24 19:53:00,,0821.6,5.00,0.00,21.9,21.2,00.0,30.9,23.6,10.2,0000.0,0006.86,0003.15,0002.35
2022-01-24 19:54:00,,0821.7,5.02,0.00,21.9,21.2,00.0,30.9,23.6,10.6,0000.0,0006.99,0003.14,0002.37
2022-01-24 19:55:00,,0821.7,4.99,0.00,21.8,21.3,00.0,30.9,23.5,10.8,0000.0,0007.85,0003.22,0002.46
2022-01-24 19:56:00,,0821.5,5.00,0.00,21.9,21.3,00.0,30.9,23.5,10.6,0000.0,0007.84,0003.30,0002.54
2022-01-24 19:57:00,,0821.6,5.02,0.00,21.8,21.2,00.0,30.9,23.5,10.6,0000.0,0007.84,0003.34,0002.59
2022-01-24 19:58:00,,0821.6,5.00,0.00,21.8,21.1,00.0,30.9,23.5,10.6,0000.0,0008.18,0003.40,0002.64
2022-01-24 19:59:00,,0821.6,5.00,0.00,21.8,21.1,00.0,30.9,23.5,10.6,0000.0,0008.91,0003.41,0002.67
